Location: Middelsbur
(53.6609°N, 7.5020°E)
Time: 00:17:45
(UTC+00:00)

Cosmos 2219 Rocket - Pass Details

Date: 06 July 2020
Orbit: 827 x 847 km, 71.0° (Epoch: 03 August)

Event Time Altitude Azimuth Distance (km) Brightness Sun altitude
Rises 21:58:43 0° 220° (SW) 3,360 5.1 -11.0°
Reaches altitude 10° 22:01:10 10° 224° (SW) 2,432 4.4 -11.1°
Maximum altitude 22:06:42 66° 306° (NW) 912 2.6 -11.4°
Drops below altitude 10° 22:12:19 10° 29° (NNE) 2,458 5.2 -11.7°
Sets 22:14:48 0° 33° (NNE) 3,399 5.9 -11.8°
